STARLINK-11194, 60187

Orbit data source: Space-Track

STARLINK-11194, 60187 is a payload satellite owned by SpaceX/Seattle (US) in LEO that was launched on Wed, 03 Jul 2024 UTC via an FALCON 9 launch vehicle from the Air Force Eastern Test Range (AFETR). Payload-class satellites include a variety of spacecraft equipped with specific instruments for various scientific and technological missions. These include communications satellites like Starlink; space stations such as the ISS; scientific satellites like the Hubble; Earth observation satellites from companies like Planet Labs, Umbra, and HawkEye 360; GPS; miniature CubeSats for education and research; and military/defense satellites.

Loading next visibility...
Identifier
60187, 2024-124E
Orbit
LEO
Country
Flag of USUS
Related business
Manufacturer
SpaceX/Seattle
Mission
Operational spacecraft
Bus & Motor
STARLINK V2MD, Unknown motor
Mass
960 kg wet, ~910 kg dry
Launch date (UTC)
2024-07-03 (2 years ago)
Launch vehicle
FALCON 9
Launch site
Air Force Eastern Test Range (AFETR)
Object type
Payload
Rocket body
Debris
Shape & HBR
Unknown shape, 18.1 m
Radar Cross Section
Large (>1 m²)

Expand to show TLE details & history
Last TLE update: 9 hours ago

TLE from 9 hours ago
0 STARLINK-11194
1 60187U 24124E   26035.99783580  .00011835  00000-0  10236-3 0  9993
2 60187  53.1586 322.1031 0001285  55.2515 304.8624 15.69720061 91401
Epoch: 2026-02-04T23:56Z
TLE epoch observation values (Epoch: 2026-02-04T23:56:53.013Z)
Latitude
0.00002°
Longitude
-172.27416°
Altitude
360.118 km
Speed
7.695 km/s
True Right ascension
21h 28m 24s
True Declination
0° 00' 00"
Sunlit
Object was in daylight at epoch
Visualization orbit readout
Latitude
Unknown
Longitude
Unknown
Altitude
Unknown
Speed
Unknown
Apparent Right ascension
Unknown
Apparent Declination
Unknown
Sunlit
N/A
Visualization observer readout
Local Sidereal Time
10:31:27
Azimuth
Unknown
Elevation
Unknown
Doppler factor
Unknown
Orbital elements
Apogee altitude
360.825 km
Perigee altitude
359.093 km
Semi-major axis
6,738.096 km
Eccentricity
0.00013
Inclination
53.1586°
RAAN
322.1031°
Arg. of periapsis
55.2515°
True anomaly
304.85032°
Mean anomaly
304.8624°
Eccentric anomaly
304.85636°
Mean motion
3.92408 °/min
Orbital period
91.74 mins
BSTAR
0.00010236
Loading maneuver chart data...
Computing Atmospheric mass density...
Loading historical data...
Loading historical data...
Loading historical data...
Loading historical data...
Loading historical data...
Loading historical data...
Loading historical data...

Documentation

Showing up to 5 results
|